Year,Month,Day,Hour,Minute,Value (Times are PST for temperature in C)
2015,04,19,00,00,5.40
2015,04,19,00,01,5.40
2015,04,19,00,02,5.70
2015,04,19,00,03,5.70
2015,04,19,00,04,5.70
2015,04,19,00,05,5.70
2015,04,19,00,06,5.70
2015,04,19,00,07,5.70
2015,04,19,00,08,5.70
2015,04,19,00,09,5.70
2015,04,19,00,10,5.70
2015,04,19,00,11,5.70
2015,04,19,00,12,5.70
2015,04,19,00,13,5.70
2015,04,19,00,14,5.70
2015,04,19,00,15,5.70
2015,04,19,00,16,6.00
2015,04,19,00,17,6.00
2015,04,19,00,18,6.00
2015,04,19,00,19,6.00
2015,04,19,00,20,6.00
2015,04,19,00,21,6.00
2015,04,19,00,22,6.00
2015,04,19,00,23,6.00
2015,04,19,00,24,6.00
2015,04,19,00,25,6.00
2015,04,19,00,26,6.00
2015,04,19,00,27,6.00
2015,04,19,00,28,6.00
2015,04,19,00,29,6.00
2015,04,19,00,30,6.00
2015,04,19,00,31,6.10
2015,04,19,00,32,6.10
2015,04,19,00,33,6.10
2015,04,19,00,34,6.10
2015,04,19,00,35,6.10
2015,04,19,00,36,6.10
2015,04,19,00,37,6.10
2015,04,19,00,38,6.10
2015,04,19,00,39,6.10
2015,04,19,00,40,6.10
2015,04,19,00,41,6.10
2015,04,19,00,42,6.10
2015,04,19,00,43,6.10
2015,04,19,00,44,6.10
2015,04,19,00,45,6.10
2015,04,19,00,46,6.20
2015,04,19,00,47,6.20
2015,04,19,00,48,6.20
2015,04,19,00,49,6.20
2015,04,19,00,50,6.20
2015,04,19,00,51,6.20
2015,04,19,00,52,6.20
2015,04,19,00,53,6.20
2015,04,19,00,54,6.20
2015,04,19,00,55,6.20
2015,04,19,00,56,6.20
2015,04,19,00,57,6.20
2015,04,19,00,58,6.20
2015,04,19,00,59,6.20
2015,04,19,01,00,6.20
2015,04,19,01,01,6.30
2015,04,19,01,02,6.30
2015,04,19,01,03,6.30
2015,04,19,01,04,6.30
2015,04,19,01,05,6.30
2015,04,19,01,06,6.30
2015,04,19,01,07,6.30
2015,04,19,01,08,6.30
2015,04,19,01,09,6.30
2015,04,19,01,10,6.30
2015,04,19,01,11,6.30
2015,04,19,01,12,6.30
2015,04,19,01,13,6.30
2015,04,19,01,14,6.30
2015,04,19,01,15,6.30
2015,04,19,01,16,6.50
2015,04,19,01,17,6.50
2015,04,19,01,18,6.50
2015,04,19,01,19,6.50
2015,04,19,01,20,6.50
2015,04,19,01,21,6.50
2015,04,19,01,22,6.50
2015,04,19,01,23,6.50
2015,04,19,01,24,6.50
2015,04,19,01,25,6.50
2015,04,19,01,26,6.50
2015,04,19,01,27,6.50
2015,04,19,01,28,6.50
2015,04,19,01,29,6.50
2015,04,19,01,30,6.50
2015,04,19,01,31,6.60
2015,04,19,01,32,6.60
2015,04,19,01,33,6.60
2015,04,19,01,34,6.60
2015,04,19,01,35,6.60
2015,04,19,01,36,6.60
2015,04,19,01,37,6.60
2015,04,19,01,38,6.60
2015,04,19,01,39,6.60
2015,04,19,01,40,6.60
2015,04,19,01,41,6.60
2015,04,19,01,42,6.60
2015,04,19,01,43,6.60
2015,04,19,01,44,6.60
2015,04,19,01,45,6.60
2015,04,19,01,46,6.60
2015,04,19,01,47,6.60
2015,04,19,01,48,6.60
2015,04,19,01,49,6.60
2015,04,19,01,50,6.60
2015,04,19,01,51,6.60
2015,04,19,01,52,6.60
2015,04,19,01,53,6.60
2015,04,19,01,54,6.60
2015,04,19,01,55,6.60
2015,04,19,01,56,6.60
2015,04,19,01,57,6.60
2015,04,19,01,58,6.60
2015,04,19,01,59,6.60
2015,04,19,02,00,6.60
2015,04,19,02,01,6.60
2015,04,19,02,02,6.60
2015,04,19,02,03,6.60
2015,04,19,02,04,6.60
2015,04,19,02,05,6.60
2015,04,19,02,06,6.60
2015,04,19,02,07,6.60
2015,04,19,02,08,6.60
2015,04,19,02,09,6.60
2015,04,19,02,10,6.60
2015,04,19,02,11,6.60
2015,04,19,02,12,6.60
2015,04,19,02,13,6.60
2015,04,19,02,14,6.60
2015,04,19,02,15,6.60
2015,04,19,02,16,6.60
2015,04,19,02,17,6.60
2015,04,19,02,18,6.60
2015,04,19,02,19,6.60
2015,04,19,02,20,6.60
2015,04,19,02,21,6.60
2015,04,19,02,22,6.60
2015,04,19,02,23,6.60
2015,04,19,02,24,6.60
2015,04,19,02,25,6.60
2015,04,19,02,26,6.60
2015,04,19,02,27,6.60
2015,04,19,02,28,6.60
2015,04,19,02,29,6.60
2015,04,19,02,30,6.60
2015,04,19,02,31,6.40
2015,04,19,02,32,6.40
2015,04,19,02,33,6.40
2015,04,19,02,34,6.40
2015,04,19,02,35,6.40
2015,04,19,02,36,6.40
2015,04,19,02,37,6.40
2015,04,19,02,38,6.40
2015,04,19,02,39,6.40
2015,04,19,02,40,6.40
2015,04,19,02,41,6.40
2015,04,19,02,42,6.40
2015,04,19,02,43,6.40
2015,04,19,02,44,6.40
2015,04,19,02,45,6.40
2015,04,19,02,47,6.30
2015,04,19,02,48,6.30
2015,04,19,02,49,6.30
2015,04,19,02,50,6.30
2015,04,19,02,51,6.30
2015,04,19,02,52,6.30
2015,04,19,02,53,6.30
2015,04,19,02,54,6.30
2015,04,19,02,55,6.30
2015,04,19,02,56,6.30
2015,04,19,02,57,6.30
2015,04,19,02,58,6.30
2015,04,19,02,59,6.30
2015,04,19,03,00,6.30
2015,04,19,03,01,6.10
2015,04,19,03,02,6.10
2015,04,19,03,03,6.10
2015,04,19,03,04,6.10
2015,04,19,03,05,6.10
2015,04,19,03,06,6.10
2015,04,19,03,07,6.10
2015,04,19,03,08,6.10
2015,04,19,03,09,6.10
2015,04,19,03,10,6.10
2015,04,19,03,11,6.10
2015,04,19,03,12,6.10
2015,04,19,03,13,6.10
2015,04,19,03,14,6.10
2015,04,19,03,15,6.10
2015,04,19,03,16,6.00
2015,04,19,03,17,6.00
2015,04,19,03,18,6.00
2015,04,19,03,19,6.00
2015,04,19,03,20,6.00
2015,04,19,03,21,6.00
2015,04,19,03,22,6.00
2015,04,19,03,23,6.00
2015,04,19,03,24,6.00
2015,04,19,03,25,6.00
2015,04,19,03,26,6.00
2015,04,19,03,27,6.00
2015,04,19,03,28,6.00
2015,04,19,03,29,6.00
2015,04,19,03,30,6.00
2015,04,19,03,31,5.90
2015,04,19,03,32,5.90
2015,04,19,03,33,5.90
2015,04,19,03,34,5.90
2015,04,19,03,35,5.90
2015,04,19,03,36,5.90
2015,04,19,03,37,5.90
2015,04,19,03,38,5.90
2015,04,19,03,39,5.90
2015,04,19,03,40,5.90
2015,04,19,03,41,5.90
2015,04,19,03,42,5.90
2015,04,19,03,43,5.90
2015,04,19,03,44,5.90
2015,04,19,03,45,5.90
2015,04,19,03,46,5.70
2015,04,19,03,47,5.70
2015,04,19,03,48,5.70
2015,04,19,03,49,5.70
2015,04,19,03,50,5.70
2015,04,19,03,51,5.70
2015,04,19,03,52,5.70
2015,04,19,03,53,5.70
2015,04,19,03,54,5.70
2015,04,19,03,55,5.70
2015,04,19,03,56,5.70
2015,04,19,03,57,5.70
2015,04,19,03,58,5.70
2015,04,19,03,59,5.70
2015,04,19,04,00,5.70
2015,04,19,04,01,5.80
2015,04,19,04,02,5.80
2015,04,19,04,03,5.80
2015,04,19,04,04,5.80
2015,04,19,04,05,5.80
2015,04,19,04,06,5.80
2015,04,19,04,07,5.80
2015,04,19,04,08,5.80
2015,04,19,04,09,5.80
2015,04,19,04,10,5.80
2015,04,19,04,11,5.80
2015,04,19,04,12,5.80
2015,04,19,04,13,5.80
2015,04,19,04,14,5.80
2015,04,19,04,15,5.80
2015,04,19,04,16,6.10
2015,04,19,04,17,6.10
2015,04,19,04,18,6.10
2015,04,19,04,19,6.10
2015,04,19,04,20,6.10
2015,04,19,04,21,6.10
2015,04,19,04,22,6.10
2015,04,19,04,23,6.10
2015,04,19,04,24,6.10
2015,04,19,04,25,6.10
2015,04,19,04,26,6.10
2015,04,19,04,27,6.10
2015,04,19,04,28,6.10
2015,04,19,04,29,6.10
2015,04,19,04,30,6.10
2015,04,19,04,31,6.00
2015,04,19,04,32,6.00
2015,04,19,04,33,6.00
2015,04,19,04,34,6.00
2015,04,19,04,35,6.00
2015,04,19,04,36,6.00
2015,04,19,04,37,6.00
2015,04,19,04,38,6.00
2015,04,19,04,39,6.00
2015,04,19,04,40,6.00
2015,04,19,04,41,6.00
2015,04,19,04,42,6.00
2015,04,19,04,43,6.00
2015,04,19,04,44,6.00
2015,04,19,04,45,6.00
2015,04,19,04,46,6.40
2015,04,19,04,47,6.40
2015,04,19,04,48,6.40
2015,04,19,04,49,6.40
2015,04,19,04,50,6.40
2015,04,19,04,51,6.40
2015,04,19,04,52,6.40
2015,04,19,04,53,6.40
2015,04,19,04,54,6.40
2015,04,19,04,55,6.40
2015,04,19,04,56,6.40
2015,04,19,04,57,6.40
2015,04,19,04,58,6.40
2015,04,19,04,59,6.40
2015,04,19,05,00,6.40
2015,04,19,05,01,6.40
2015,04,19,05,02,6.60
2015,04,19,05,03,6.60
2015,04,19,05,04,6.60
2015,04,19,05,05,6.60
2015,04,19,05,06,6.60
2015,04,19,05,07,6.60
2015,04,19,05,08,6.60
2015,04,19,05,09,6.60
2015,04,19,05,10,6.60
2015,04,19,05,11,6.60
2015,04,19,05,12,6.60
2015,04,19,05,13,6.60
2015,04,19,05,14,6.60
2015,04,19,05,15,6.60
2015,04,19,05,16,6.40
2015,04,19,05,17,6.40
2015,04,19,05,18,6.40
2015,04,19,05,19,6.40
2015,04,19,05,20,6.40
2015,04,19,05,21,6.40
2015,04,19,05,22,6.40
2015,04,19,05,23,6.40
2015,04,19,05,24,6.40
2015,04,19,05,25,6.40
2015,04,19,05,26,6.40
2015,04,19,05,27,6.40
2015,04,19,05,28,6.40
2015,04,19,05,29,6.40
2015,04,19,05,30,6.40
2015,04,19,05,32,6.40
2015,04,19,05,33,6.40
2015,04,19,05,34,6.40
2015,04,19,05,35,6.40
2015,04,19,05,36,6.40
2015,04,19,05,37,6.40
2015,04,19,05,38,6.40
2015,04,19,05,39,6.40
2015,04,19,05,40,6.40
2015,04,19,05,41,6.40
2015,04,19,05,42,6.40
2015,04,19,05,43,6.40
2015,04,19,05,44,6.40
2015,04,19,05,45,6.40
2015,04,19,05,46,6.30
2015,04,19,05,47,6.30
2015,04,19,05,48,6.30
2015,04,19,05,49,6.30
2015,04,19,05,50,6.30
2015,04,19,05,51,6.30
2015,04,19,05,52,6.30
2015,04,19,05,53,6.30
2015,04,19,05,54,6.30
2015,04,19,05,55,6.30
2015,04,19,05,56,6.30
2015,04,19,05,57,6.30
2015,04,19,05,58,6.30
2015,04,19,05,59,6.30
2015,04,19,06,00,6.30
2015,04,19,06,01,6.20
2015,04,19,06,02,6.20
2015,04,19,06,03,6.20
2015,04,19,06,04,6.20
2015,04,19,06,05,6.20
2015,04,19,06,06,6.20
2015,04,19,06,07,6.20
2015,04,19,06,08,6.20
2015,04,19,06,09,6.20
2015,04,19,06,10,6.20
2015,04,19,06,11,6.20
2015,04,19,06,12,6.20
2015,04,19,06,13,6.20
2015,04,19,06,14,6.20
2015,04,19,06,15,6.20
2015,04,19,06,16,5.90
2015,04,19,06,17,5.90
2015,04,19,06,18,5.90
2015,04,19,06,19,5.90
2015,04,19,06,20,5.90
2015,04,19,06,21,5.90
2015,04,19,06,22,5.90
2015,04,19,06,23,5.90
2015,04,19,06,24,5.90
2015,04,19,06,25,5.90
2015,04,19,06,26,5.90
2015,04,19,06,27,5.90
2015,04,19,06,28,5.90
2015,04,19,06,29,5.90
2015,04,19,06,30,5.90
2015,04,19,06,32,5.90
2015,04,19,06,33,5.90
2015,04,19,06,34,5.90
2015,04,19,06,35,5.90
2015,04,19,06,36,5.90
2015,04,19,06,37,5.90
2015,04,19,06,38,5.90
2015,04,19,06,39,5.90
2015,04,19,06,40,5.90
2015,04,19,06,41,5.90
2015,04,19,06,42,5.90
2015,04,19,06,43,5.90
2015,04,19,06,44,5.90
2015,04,19,06,45,5.90
2015,04,19,06,46,5.90
2015,04,19,06,47,5.90
2015,04,19,06,48,5.90
2015,04,19,06,49,5.90
2015,04,19,06,50,5.90
2015,04,19,06,51,5.90
2015,04,19,06,52,5.90
2015,04,19,06,53,5.90
2015,04,19,06,54,5.90
2015,04,19,06,55,5.90
2015,04,19,06,56,5.90
2015,04,19,06,57,5.90
2015,04,19,06,58,5.90
2015,04,19,06,59,5.90
2015,04,19,07,00,5.90
2015,04,19,07,01,5.90
2015,04,19,07,02,5.90
2015,04,19,07,03,5.90
2015,04,19,07,04,5.90
2015,04,19,07,05,5.90
2015,04,19,07,06,5.90
2015,04,19,07,07,5.90
2015,04,19,07,08,5.90
2015,04,19,07,09,5.90
2015,04,19,07,10,5.90
2015,04,19,07,11,5.90
2015,04,19,07,12,5.90
2015,04,19,07,13,5.90
2015,04,19,07,14,5.90
2015,04,19,07,15,5.90
2015,04,19,07,16,5.90
2015,04,19,07,17,5.80
2015,04,19,07,18,5.80
2015,04,19,07,19,5.80
2015,04,19,07,20,5.80
2015,04,19,07,21,5.80
2015,04,19,07,22,5.80
2015,04,19,07,23,5.80
2015,04,19,07,24,5.80
2015,04,19,07,25,5.80
2015,04,19,07,26,5.80
2015,04,19,07,27,5.80
2015,04,19,07,28,5.80
2015,04,19,07,29,5.80
2015,04,19,07,30,5.80
2015,04,19,07,31,5.90
2015,04,19,07,32,5.90
2015,04,19,07,33,5.90
2015,04,19,07,34,5.90
2015,04,19,07,35,5.90
2015,04,19,07,36,5.90
2015,04,19,07,37,5.90
2015,04,19,07,38,5.90
2015,04,19,07,39,5.90
2015,04,19,07,40,5.90
2015,04,19,07,41,5.90
2015,04,19,07,42,5.90
2015,04,19,07,43,5.90
2015,04,19,07,44,5.90
2015,04,19,07,45,5.90
2015,04,19,07,46,6.00
2015,04,19,07,47,6.00
2015,04,19,07,48,6.00
2015,04,19,07,49,6.00
2015,04,19,07,50,6.00
2015,04,19,07,51,6.00
2015,04,19,07,52,6.00
2015,04,19,07,53,6.00
2015,04,19,07,54,6.00
2015,04,19,07,55,6.00
2015,04,19,07,56,6.00
2015,04,19,07,57,6.00
2015,04,19,07,58,6.00
2015,04,19,07,59,6.00
2015,04,19,08,00,6.00
2015,04,19,08,01,6.80
2015,04,19,08,02,6.80
2015,04,19,08,03,6.80
2015,04,19,08,04,6.80
2015,04,19,08,05,6.80
2015,04,19,08,06,6.80
2015,04,19,08,07,6.80
2015,04,19,08,08,6.80
2015,04,19,08,09,6.80
2015,04,19,08,10,6.80
2015,04,19,08,11,6.80
2015,04,19,08,12,6.80
2015,04,19,08,13,6.80
2015,04,19,08,14,6.80
2015,04,19,08,15,6.80
2015,04,19,08,17,7.40
2015,04,19,08,18,7.40
2015,04,19,08,19,7.40
2015,04,19,08,20,7.40
2015,04,19,08,21,7.40
2015,04,19,08,22,7.40
2015,04,19,08,23,7.40
2015,04,19,08,24,7.40
2015,04,19,08,25,7.40
2015,04,19,08,26,7.40
2015,04,19,08,27,7.40
2015,04,19,08,28,7.40
2015,04,19,08,29,7.40
2015,04,19,08,30,7.40
2015,04,19,08,31,8.20
2015,04,19,08,32,8.20
2015,04,19,08,33,8.20
2015,04,19,08,34,8.20
2015,04,19,08,35,8.20
2015,04,19,08,36,8.20
2015,04,19,08,37,8.20
2015,04,19,08,38,8.20
2015,04,19,08,39,8.20
2015,04,19,08,40,8.20
2015,04,19,08,41,8.20
2015,04,19,08,42,8.20
2015,04,19,08,43,8.20
2015,04,19,08,44,8.20
2015,04,19,08,45,8.20
2015,04,19,08,46,8.70
2015,04,19,08,47,8.70
2015,04,19,08,48,8.70
2015,04,19,08,49,8.70
2015,04,19,08,50,8.70
2015,04,19,08,51,8.70
2015,04,19,08,52,8.70
2015,04,19,08,53,8.70
2015,04,19,08,54,8.70
2015,04,19,08,55,8.70
2015,04,19,08,56,8.70
2015,04,19,08,57,8.70
2015,04,19,08,58,8.70
2015,04,19,08,59,8.70
2015,04,19,09,00,8.70
2015,04,19,09,01,8.90
2015,04,19,09,02,8.90
2015,04,19,09,03,8.90
2015,04,19,09,04,8.90
2015,04,19,09,05,8.90
2015,04,19,09,06,8.90
2015,04,19,09,07,8.90
2015,04,19,09,08,8.90
2015,04,19,09,09,8.90
2015,04,19,09,10,8.90
2015,04,19,09,11,8.90
2015,04,19,09,12,8.90
2015,04,19,09,13,8.90
2015,04,19,09,14,8.90
2015,04,19,09,15,8.90
2015,04,19,09,16,9.10
2015,04,19,09,17,9.10
2015,04,19,09,18,9.10
2015,04,19,09,19,9.10
2015,04,19,09,20,9.10
2015,04,19,09,21,9.10
2015,04,19,09,22,9.10
2015,04,19,09,23,9.10
2015,04,19,09,24,9.10
2015,04,19,09,25,9.10
2015,04,19,09,26,9.10
2015,04,19,09,27,9.10
2015,04,19,09,28,9.10
2015,04,19,09,29,9.10
2015,04,19,09,30,9.10
2015,04,19,09,31,9.20
2015,04,19,09,32,9.20
2015,04,19,09,33,9.20
2015,04,19,09,34,9.20
2015,04,19,09,35,9.20
2015,04,19,09,36,9.20
2015,04,19,09,37,9.20
2015,04,19,09,38,9.20
2015,04,19,09,39,9.20
2015,04,19,09,40,9.20
2015,04,19,09,41,9.20
2015,04,19,09,42,9.20
2015,04,19,09,43,9.20
2015,04,19,09,44,9.20
2015,04,19,09,45,9.20
2015,04,19,09,46,9.40
2015,04,19,09,47,9.40
2015,04,19,09,48,9.40
2015,04,19,09,49,9.40
2015,04,19,09,50,9.40
2015,04,19,09,51,9.40
2015,04,19,09,52,9.40
2015,04,19,09,53,9.40
2015,04,19,09,54,9.40
2015,04,19,09,55,9.40
2015,04,19,09,56,9.40
2015,04,19,09,57,9.40
2015,04,19,09,58,9.40
2015,04,19,09,59,9.40
2015,04,19,10,00,9.40
2015,04,19,10,01,9.50
2015,04,19,10,02,9.50
2015,04,19,10,03,9.50
2015,04,19,10,04,9.50
2015,04,19,10,05,9.50
2015,04,19,10,06,9.50
2015,04,19,10,07,9.50
2015,04,19,10,08,9.50
2015,04,19,10,09,9.50
2015,04,19,10,10,9.50
2015,04,19,10,11,9.50
2015,04,19,10,12,9.50
2015,04,19,10,13,9.50
2015,04,19,10,14,9.50
2015,04,19,10,15,9.50
2015,04,19,10,16,9.50
2015,04,19,10,17,9.50
2015,04,19,10,18,9.50
2015,04,19,10,19,9.50
2015,04,19,10,20,9.50
2015,04,19,10,21,9.50
2015,04,19,10,22,9.50
2015,04,19,10,23,9.50
2015,04,19,10,24,9.50
2015,04,19,10,25,9.50
2015,04,19,10,26,9.50
2015,04,19,10,27,9.50
2015,04,19,10,28,9.50
2015,04,19,10,29,9.50
2015,04,19,10,30,9.50
2015,04,19,10,31,9.90
2015,04,19,10,32,9.90
2015,04,19,10,33,9.90
2015,04,19,10,34,9.90
2015,04,19,10,35,9.90
2015,04,19,10,36,9.90
2015,04,19,10,37,9.90
2015,04,19,10,38,9.90
2015,04,19,10,39,9.90
2015,04,19,10,40,9.90
2015,04,19,10,41,9.90
2015,04,19,10,42,9.90
2015,04,19,10,43,9.90
2015,04,19,10,44,9.90
2015,04,19,10,45,9.90
2015,04,19,10,46,10.30
2015,04,19,10,47,10.30
2015,04,19,10,48,10.30
2015,04,19,10,49,10.30
2015,04,19,10,50,10.30
2015,04,19,10,51,10.30
2015,04,19,10,52,10.30
2015,04,19,10,53,10.30
2015,04,19,10,54,10.30
2015,04,19,10,55,10.30
2015,04,19,10,56,10.30
2015,04,19,10,57,10.30
2015,04,19,10,58,10.30
2015,04,19,10,59,10.30
2015,04,19,11,00,10.30
2015,04,19,11,01,10.90
2015,04,19,11,02,10.90
2015,04,19,11,03,10.90
2015,04,19,11,04,10.90
2015,04,19,11,05,10.90
2015,04,19,11,06,10.90
2015,04,19,11,07,10.90
2015,04,19,11,08,10.90
2015,04,19,11,09,10.90
2015,04,19,11,10,10.90
2015,04,19,11,11,10.90
2015,04,19,11,12,10.90
2015,04,19,11,13,10.90
2015,04,19,11,14,10.90
2015,04,19,11,15,10.90
2015,04,19,11,17,11.20
2015,04,19,11,18,11.20
2015,04,19,11,19,11.20
2015,04,19,11,20,11.20
2015,04,19,11,21,11.20
2015,04,19,11,22,11.20
2015,04,19,11,23,11.20
2015,04,19,11,24,11.20
2015,04,19,11,25,11.20
2015,04,19,11,26,11.20
2015,04,19,11,27,11.20
2015,04,19,11,28,11.20
2015,04,19,11,29,11.20
2015,04,19,11,30,11.20
2015,04,19,11,31,11.30
2015,04,19,11,32,11.30
2015,04,19,11,33,11.30
2015,04,19,11,34,11.30
2015,04,19,11,35,11.30
2015,04,19,11,36,11.30
2015,04,19,11,37,11.30
2015,04,19,11,38,11.30
2015,04,19,11,39,11.30
2015,04,19,11,40,11.30
2015,04,19,11,41,11.30
2015,04,19,11,42,11.30
2015,04,19,11,43,11.30
2015,04,19,11,44,11.30
2015,04,19,11,45,11.30
2015,04,19,11,46,11.40
2015,04,19,11,47,11.40
2015,04,19,11,48,11.40
2015,04,19,11,49,11.40
2015,04,19,11,50,11.40
2015,04,19,11,51,11.40
2015,04,19,11,52,11.40
2015,04,19,11,53,11.40
2015,04,19,11,54,11.40
2015,04,19,11,55,11.40
2015,04,19,11,56,11.40
2015,04,19,11,57,11.40
2015,04,19,11,58,11.40
2015,04,19,11,59,11.40
2015,04,19,12,00,11.40
2015,04,19,12,01,11.50
2015,04,19,12,02,11.50
2015,04,19,12,03,11.50
2015,04,19,12,04,11.50
2015,04,19,12,05,11.50
2015,04,19,12,06,11.50
2015,04,19,12,07,11.50
2015,04,19,12,08,11.50
2015,04,19,12,09,11.50
2015,04,19,12,10,11.50
2015,04,19,12,11,11.50
2015,04,19,12,12,11.50
2015,04,19,12,13,11.50
2015,04,19,12,14,11.50
2015,04,19,12,15,11.50
2015,04,19,12,16,12.00
2015,04,19,12,17,12.00
2015,04,19,12,18,12.00
2015,04,19,12,19,12.00
2015,04,19,12,20,12.00
2015,04,19,12,21,12.00
2015,04,19,12,22,12.00
2015,04,19,12,23,12.00
2015,04,19,12,24,12.00
2015,04,19,12,25,12.00
2015,04,19,12,26,12.00
2015,04,19,12,27,12.00
2015,04,19,12,28,12.00
2015,04,19,12,29,12.00
2015,04,19,12,30,12.00
2015,04,19,12,31,12.90
2015,04,19,12,32,12.90
2015,04,19,12,33,12.90
2015,04,19,12,34,12.90
2015,04,19,12,35,12.90
2015,04,19,12,36,12.90
2015,04,19,12,37,12.90
2015,04,19,12,38,12.90
2015,04,19,12,39,12.90
2015,04,19,12,40,12.90
2015,04,19,12,41,12.90
2015,04,19,12,42,12.90
2015,04,19,12,43,12.90
2015,04,19,12,44,12.90
2015,04,19,12,45,12.90
2015,04,19,12,46,12.80
2015,04,19,12,47,12.80
2015,04,19,12,48,12.80
2015,04,19,12,49,12.80
2015,04,19,12,50,12.80
2015,04,19,12,51,12.80
2015,04,19,12,52,12.80
2015,04,19,12,53,12.80
2015,04,19,12,54,12.80
2015,04,19,12,55,12.80
2015,04,19,12,56,12.80
2015,04,19,12,57,12.80
2015,04,19,12,58,12.80
2015,04,19,12,59,12.80
2015,04,19,13,00,12.80
2015,04,19,13,01,12.90
2015,04,19,13,02,12.90
2015,04,19,13,03,12.90
2015,04,19,13,04,12.90
2015,04,19,13,05,12.90
2015,04,19,13,06,12.90
2015,04,19,13,07,12.90
2015,04,19,13,08,12.90
2015,04,19,13,09,12.90
2015,04,19,13,10,12.90
2015,04,19,13,11,12.90
2015,04,19,13,12,12.90
2015,04,19,13,13,12.90
2015,04,19,13,14,12.90
2015,04,19,13,15,12.90
2015,04,19,13,16,12.60
2015,04,19,13,17,12.60
2015,04,19,13,18,12.60
2015,04,19,13,19,12.60
2015,04,19,13,20,12.60
2015,04,19,13,21,12.60
2015,04,19,13,22,12.60
2015,04,19,13,23,12.60
2015,04,19,13,24,12.60
2015,04,19,13,25,12.60
2015,04,19,13,26,12.60
2015,04,19,13,27,12.60
2015,04,19,13,28,12.60
2015,04,19,13,29,12.60
2015,04,19,13,30,12.60
2015,04,19,13,31,12.80
2015,04,19,13,32,12.80
2015,04,19,13,33,12.80
2015,04,19,13,34,12.80
2015,04,19,13,35,12.80
2015,04,19,13,36,12.80
2015,04,19,13,37,12.80
2015,04,19,13,38,12.80
2015,04,19,13,39,12.80
2015,04,19,13,40,12.80
2015,04,19,13,41,12.80
2015,04,19,13,42,12.80
2015,04,19,13,43,12.80
2015,04,19,13,44,12.80
2015,04,19,13,45,12.80
2015,04,19,13,46,12.80
2015,04,19,13,47,12.80
2015,04,19,13,48,12.80
2015,04,19,13,49,12.80
2015,04,19,13,50,12.80
2015,04,19,13,51,12.80
2015,04,19,13,52,12.80
2015,04,19,13,53,12.80
2015,04,19,13,54,12.80
2015,04,19,13,55,12.80
2015,04,19,13,56,12.80
2015,04,19,13,57,12.80
2015,04,19,13,58,12.80
2015,04,19,13,59,12.80
2015,04,19,14,00,12.80
2015,04,19,14,01,13.50
2015,04,19,14,02,13.50
2015,04,19,14,03,13.50
2015,04,19,14,04,13.50
2015,04,19,14,05,13.50
2015,04,19,14,06,13.50
2015,04,19,14,07,13.50
2015,04,19,14,08,13.50
2015,04,19,14,09,13.50
2015,04,19,14,10,13.50
2015,04,19,14,11,13.50
2015,04,19,14,12,13.50
2015,04,19,14,13,13.50
2015,04,19,14,14,13.50
2015,04,19,14,15,13.50
2015,04,19,14,16,13.20
2015,04,19,14,17,13.20
2015,04,19,14,18,13.20
2015,04,19,14,19,13.20
2015,04,19,14,20,13.20
2015,04,19,14,21,13.20
2015,04,19,14,22,13.20
2015,04,19,14,23,13.20
2015,04,19,14,24,13.20
2015,04,19,14,25,13.20
2015,04,19,14,26,13.20
2015,04,19,14,27,13.20
2015,04,19,14,28,13.20
2015,04,19,14,29,13.20
2015,04,19,14,30,13.20
2015,04,19,14,31,13.00
2015,04,19,14,32,13.00
2015,04,19,14,33,13.00
2015,04,19,14,34,13.00
2015,04,19,14,35,13.00
2015,04,19,14,36,13.00
2015,04,19,14,37,13.00
2015,04,19,14,38,13.00
2015,04,19,14,39,13.00
2015,04,19,14,40,13.00
2015,04,19,14,41,13.00
2015,04,19,14,42,13.00
2015,04,19,14,43,13.00
2015,04,19,14,44,13.00
2015,04,19,14,45,13.00
2015,04,19,14,46,12.80
2015,04,19,14,47,12.80
2015,04,19,14,48,12.80
2015,04,19,14,49,12.80
2015,04,19,14,50,12.80
2015,04,19,14,51,12.80
2015,04,19,14,52,12.80
2015,04,19,14,53,12.80
2015,04,19,14,54,12.80
2015,04,19,14,55,12.80
2015,04,19,14,56,12.80
2015,04,19,14,57,12.80
2015,04,19,14,58,12.80
2015,04,19,14,59,12.80
2015,04,19,15,00,12.80
2015,04,19,15,01,13.00
2015,04,19,15,02,13.00
2015,04,19,15,03,13.00
2015,04,19,15,04,13.00
2015,04,19,15,05,13.00
2015,04,19,15,06,13.00
2015,04,19,15,07,13.00
2015,04,19,15,08,13.00
2015,04,19,15,09,13.00
2015,04,19,15,10,13.00
2015,04,19,15,11,13.00
2015,04,19,15,12,13.00
2015,04,19,15,13,13.00
2015,04,19,15,14,13.00
2015,04,19,15,15,13.00
2015,04,19,16,01,13.80
2015,04,19,16,02,13.80
2015,04,19,16,03,13.80
2015,04,19,16,04,13.80
2015,04,19,16,05,13.80
2015,04,19,16,06,13.80
2015,04,19,16,07,13.80
2015,04,19,16,08,13.80
2015,04,19,16,09,13.80
2015,04,19,16,10,13.80
2015,04,19,16,11,13.80
2015,04,19,16,12,13.80
2015,04,19,16,13,13.80
2015,04,19,16,14,13.80
2015,04,19,16,15,13.80
2015,04,19,16,16,13.60
2015,04,19,16,17,13.60
2015,04,19,16,18,13.60
2015,04,19,16,19,13.60
2015,04,19,16,20,13.60
2015,04,19,16,21,13.60
2015,04,19,16,22,13.60
2015,04,19,16,23,13.60
2015,04,19,16,24,13.60
2015,04,19,16,25,13.60
2015,04,19,16,26,13.60
2015,04,19,16,27,13.60
2015,04,19,16,28,13.60
2015,04,19,16,29,13.60
2015,04,19,16,30,13.60
2015,04,19,16,31,13.60
2015,04,19,16,32,13.90
2015,04,19,16,33,13.90
2015,04,19,16,34,13.90
2015,04,19,16,35,13.90
2015,04,19,16,36,13.90
2015,04,19,16,37,13.90
2015,04,19,16,38,13.90
2015,04,19,16,39,13.90
2015,04,19,16,40,13.90
2015,04,19,16,41,13.90
2015,04,19,16,42,13.90
2015,04,19,16,43,13.90
2015,04,19,16,44,13.90
2015,04,19,16,45,13.90
2015,04,19,16,46,13.70
2015,04,19,16,47,13.70
2015,04,19,16,48,13.70
2015,04,19,16,49,13.70
2015,04,19,16,50,13.70
2015,04,19,16,51,13.70
2015,04,19,16,52,13.70
2015,04,19,16,53,13.70
2015,04,19,16,54,13.70
2015,04,19,16,55,13.70
2015,04,19,16,56,13.70
2015,04,19,16,57,13.70
2015,04,19,16,58,13.70
2015,04,19,16,59,13.70
2015,04,19,17,00,13.70
2015,04,19,17,01,14.10
2015,04,19,17,02,14.10
2015,04,19,17,03,14.10
2015,04,19,17,04,14.10
2015,04,19,17,05,14.10
2015,04,19,17,06,14.10
2015,04,19,17,07,14.10
2015,04,19,17,08,14.10
2015,04,19,17,09,14.10
2015,04,19,17,10,14.10
2015,04,19,17,11,14.10
2015,04,19,17,12,14.10
2015,04,19,17,13,14.10
2015,04,19,17,14,14.10
2015,04,19,17,15,14.10
2015,04,19,17,16,14.30
2015,04,19,17,17,14.30
2015,04,19,17,18,14.30
2015,04,19,17,19,14.30
2015,04,19,17,20,14.30
2015,04,19,17,21,14.30
2015,04,19,17,22,14.30
2015,04,19,17,23,14.30
2015,04,19,17,24,14.30
2015,04,19,17,25,14.30
2015,04,19,17,26,14.30
2015,04,19,17,27,14.30
2015,04,19,17,28,14.30
2015,04,19,17,29,14.30
2015,04,19,17,30,14.30
2015,04,19,17,31,13.90
2015,04,19,17,32,13.90
2015,04,19,17,33,13.90
2015,04,19,17,34,13.90
2015,04,19,17,35,13.90
2015,04,19,17,36,13.90
2015,04,19,17,37,13.90
2015,04,19,17,38,13.90
2015,04,19,17,39,13.90
2015,04,19,17,40,13.90
2015,04,19,17,41,13.90
2015,04,19,17,42,13.90
2015,04,19,17,43,13.90
2015,04,19,17,44,13.90
2015,04,19,17,45,13.90
2015,04,19,17,47,14.10
2015,04,19,17,48,14.10
2015,04,19,17,49,14.10
2015,04,19,17,50,14.10
2015,04,19,17,51,14.10
2015,04,19,17,52,14.10
2015,04,19,17,53,14.10
2015,04,19,17,54,14.10
2015,04,19,17,55,14.10
2015,04,19,17,56,14.10
2015,04,19,17,57,14.10
2015,04,19,17,58,14.10
2015,04,19,17,59,14.10
2015,04,19,18,00,14.10
2015,04,19,18,01,14.20
2015,04,19,18,02,14.20
2015,04,19,18,03,14.20
2015,04,19,18,04,14.20
2015,04,19,18,05,14.20
2015,04,19,18,06,14.20
2015,04,19,18,07,14.20
2015,04,19,18,08,14.20
2015,04,19,18,09,14.20
2015,04,19,18,10,14.20
2015,04,19,18,11,14.20
2015,04,19,18,12,14.20
2015,04,19,18,13,14.20
2015,04,19,18,14,14.20
2015,04,19,18,15,14.20
2015,04,19,18,16,14.20
2015,04,19,18,18,14.10
2015,04,19,18,19,14.10
2015,04,19,18,20,14.10
2015,04,19,18,21,14.10
2015,04,19,18,22,14.10
2015,04,19,18,23,14.10
2015,04,19,18,24,14.10
2015,04,19,18,25,14.10
2015,04,19,18,26,14.10
2015,04,19,18,27,14.10
2015,04,19,18,28,14.10
2015,04,19,18,29,14.10
2015,04,19,18,30,14.10
2015,04,19,18,32,13.80
2015,04,19,18,33,13.80
2015,04,19,18,34,13.80
2015,04,19,18,35,13.80
2015,04,19,18,36,13.80
2015,04,19,18,37,13.80
2015,04,19,18,38,13.80
2015,04,19,18,39,13.80
2015,04,19,18,40,13.80